Date String (YYYY-MM-DD hh:mm:ss) UTC,Instrument flags,Ambient pressure (hPa),Sample flow (lpm),Bypass flow (lpm),Sample temperature (°C),Ambient temperature (°C),ASC tube jacket temperature (°C),LED temperature (°C),Box temperature (°C),Sample RH (%),Span deviation,Mass concentration (μg/m³),Mass concentration (μg/m³),Mass concentration (μg/m³)
DateTimeUTC,F1_M11,P_M11,Q1_M11,Q2_M11,T1_M11,T2_M11,T3_M11,T4_M11,T5_M11,U1_M11,ZSPAN_M11,X0_M11,X2_M11,X1_M11
2022-10-01 07:00:00,,0826.2,4.99,0.00,30.4,26.8,00.0,39.2,31.9,23.1,0000.0,0001.89,0000.88,0000.40
2022-10-01 07:01:00,,0826.3,5.00,0.00,30.3,27.2,00.0,39.1,31.9,22.8,0000.0,0001.89,0000.88,0000.41
2022-10-01 07:02:00,,0826.3,5.01,0.00,30.2,27.5,00.0,39.1,31.9,22.9,0000.0,0001.87,0000.88,0000.42
2022-10-01 07:03:00,,0826.4,5.00,0.00,30.2,27.7,00.0,39.0,31.9,23.2,0000.0,0001.97,0000.90,0000.42
2022-10-01 07:04:00,,0826.4,5.01,0.00,30.2,28.0,00.0,39.0,31.9,23.1,0000.0,0002.04,0000.92,0000.43
2022-10-01 07:05:00,,0826.5,5.00,0.00,30.1,28.1,00.0,39.0,31.9,24.1,0000.0,0002.02,0000.94,0000.44
2022-10-01 07:06:00,,0826.5,5.00,0.00,30.1,28.2,00.0,39.0,31.9,24.7,0000.0,0002.11,0000.96,0000.45
2022-10-01 07:07:00,,0826.5,4.99,0.00,30.1,28.2,00.0,39.0,31.9,23.8,0000.0,0002.09,0000.96,0000.46
2022-10-01 07:08:00,,0826.5,4.99,0.00,30.1,28.4,00.0,38.9,31.9,22.9,0000.0,0001.96,0000.93,0000.47
2022-10-01 07:09:00,,0826.5,5.01,0.00,30.1,28.4,00.0,38.9,31.9,23.4,0000.0,0001.88,0000.92,0000.47
2022-10-01 07:10:00,,0826.5,5.01,0.00,30.1,28.5,00.0,38.9,31.9,23.8,0000.0,0001.78,0000.89,0000.47
2022-10-01 07:11:00,,0826.5,4.98,0.00,30.1,28.5,00.0,38.9,31.9,24.0,0000.0,0001.90,0000.95,0000.48
2022-10-01 07:12:00,,0826.5,5.00,0.00,30.1,28.6,00.0,38.9,31.9,24.3,0000.0,0003.02,0000.98,0000.48
2022-10-01 07:13:00,,0826.5,5.00,0.00,30.1,28.6,00.0,38.9,32.0,24.4,0000.0,0003.47,0001.01,0000.49
2022-10-01 07:14:00,,0826.5,5.00,0.00,30.1,28.6,00.0,38.9,32.0,24.6,0000.0,0003.66,0001.02,0000.50
2022-10-01 07:15:00,,0826.5,5.00,0.00,30.1,28.6,00.0,38.9,32.0,24.6,0000.0,0004.24,0001.07,0000.51
2022-10-01 07:16:00,,0826.4,4.99,0.00,30.1,28.6,00.0,38.9,32.0,24.6,0000.0,0004.47,0001.13,0000.52
2022-10-01 07:17:00,,0826.5,5.01,0.00,30.1,28.7,00.0,38.9,32.0,24.7,0000.0,0004.76,0001.16,0000.53
2022-10-01 07:18:00,,0826.5,5.01,0.00,30.2,28.7,00.0,38.9,32.0,24.7,0000.0,0005.62,0001.21,0000.55
2022-10-01 07:19:00,,0826.6,4.99,0.00,30.2,28.7,00.0,38.9,32.0,24.7,0000.0,0006.20,0001.29,0000.57
2022-10-01 07:20:00,,0826.5,5.01,0.00,30.2,28.7,00.0,38.9,32.0,24.7,0000.0,0006.71,0001.37,0000.59
2022-10-01 07:21:00,,0826.5,5.02,0.00,30.2,28.8,00.0,38.9,32.0,24.4,0000.0,0006.89,0001.42,0000.60
2022-10-01 07:22:00,,0826.5,4.99,0.00,30.2,28.8,00.0,38.9,32.0,24.0,0000.0,0006.90,0001.44,0000.63
2022-10-01 07:23:00,,0826.5,5.00,0.00,30.2,28.8,00.0,38.9,32.1,23.8,0000.0,0006.08,0001.50,0000.65
2022-10-01 07:24:00,,0826.5,5.00,0.00,30.2,28.8,00.0,38.9,32.1,23.8,0000.0,0005.50,0001.52,0000.66
2022-10-01 07:25:00,,0826.5,5.01,0.00,30.2,28.8,00.0,38.9,32.1,23.9,0000.0,0005.33,0001.50,0000.67
2022-10-01 07:26:00,,0826.6,4.99,0.00,30.2,28.8,00.0,38.9,32.1,23.8,0000.0,0005.31,0001.52,0000.69
2022-10-01 07:27:00,,0826.5,5.01,0.00,30.2,28.8,00.0,39.0,32.1,23.8,0000.0,0005.59,0001.48,0000.70
2022-10-01 07:28:00,,0826.5,5.01,0.00,30.2,28.8,00.0,39.0,32.1,23.7,0000.0,0005.50,0001.46,0000.72
2022-10-01 07:29:00,,0826.5,4.99,0.00,30.2,28.8,00.0,39.0,32.1,23.7,0000.0,0004.65,0001.46,0000.73
2022-10-01 07:30:00,,0826.5,5.00,0.00,30.2,28.8,00.0,39.0,32.1,23.9,0000.0,0004.28,0001.42,0000.74
2022-10-01 07:31:00,,0826.5,5.02,0.00,30.3,28.9,00.0,39.0,32.1,24.2,0000.0,0004.03,0001.42,0000.75
2022-10-01 07:32:00,,0826.5,5.00,0.00,30.3,28.9,00.0,39.0,32.1,24.6,0000.0,0004.01,0001.44,0000.76
2022-10-01 07:33:00,,0826.5,5.00,0.00,30.3,28.9,00.0,39.0,32.1,24.7,0000.0,0004.05,0001.41,0000.75
2022-10-01 07:34:00,,0826.5,5.00,0.00,30.3,28.9,00.0,39.0,32.1,24.5,0000.0,0004.30,0001.41,0000.76
2022-10-01 07:35:00,,0826.5,5.00,0.00,30.3,28.9,00.0,39.0,32.1,24.5,0000.0,0004.32,0001.41,0000.76
2022-10-01 07:36:00,,0826.5,5.01,0.00,30.3,28.9,00.0,39.0,32.1,24.4,0000.0,0004.36,0001.44,0000.76
2022-10-01 07:37:00,,0826.5,5.00,0.00,30.3,28.9,00.0,39.0,32.2,24.5,0000.0,0003.79,0001.42,0000.77
2022-10-01 07:38:00,,0826.5,4.99,0.00,30.3,28.9,00.0,39.0,32.2,24.6,0000.0,0003.42,0001.48,0000.79
2022-10-01 07:39:00,,0826.5,5.00,0.00,30.3,28.9,00.0,39.1,32.2,24.5,0000.0,0003.57,0001.56,0000.79
2022-10-01 07:40:00,,0826.5,5.01,0.00,30.3,28.9,00.0,39.1,32.2,24.5,0000.0,0003.57,0001.59,0000.79
2022-10-01 07:41:00,,0826.5,5.00,0.00,30.3,28.9,00.0,39.1,32.2,24.4,0000.0,0003.76,0001.65,0000.79
2022-10-01 07:42:00,,0826.5,5.00,0.00,30.4,28.9,00.0,39.1,32.2,24.3,0000.0,0003.67,0001.65,0000.79
2022-10-01 07:43:00,,0826.5,5.00,0.00,30.4,28.9,00.0,39.1,32.2,24.3,0000.0,0004.86,0001.69,0000.79
2022-10-01 07:44:00,,0826.4,5.00,0.00,30.4,28.9,00.0,39.1,32.2,24.2,0000.0,0005.07,0001.67,0000.80
2022-10-01 07:45:00,,0826.5,5.01,0.00,30.4,28.9,00.0,39.1,32.2,24.0,0000.0,0004.91,0001.67,0000.81
2022-10-01 07:46:00,,0826.5,5.00,0.00,30.4,28.9,00.0,39.1,32.2,23.9,0000.0,0004.93,0001.68,0000.82
2022-10-01 07:47:00,,0826.5,5.00,0.00,30.4,29.0,00.0,39.1,32.2,23.8,0000.0,0005.20,0001.75,0000.83
2022-10-01 07:48:00,,0826.5,4.99,0.00,30.4,29.0,00.0,39.1,32.2,23.9,0000.0,0005.34,0001.75,0000.84
2022-10-01 07:49:00,,0826.6,5.01,0.00,30.4,29.0,00.0,39.1,32.2,23.9,0000.0,0005.28,0001.70,0000.84
2022-10-01 07:50:00,,0826.7,5.00,0.00,30.4,29.0,00.0,39.1,32.2,24.0,0000.0,0004.98,0001.59,0000.84
2022-10-01 07:51:00,,0826.7,5.00,0.00,30.4,28.9,00.0,39.1,32.2,24.4,0000.0,0005.19,0001.55,0000.84
2022-10-01 07:52:00,,0826.7,5.00,0.00,30.4,29.0,00.0,39.1,32.2,25.3,0000.0,0005.65,0001.54,0000.84
2022-10-01 07:53:00,,0826.8,5.00,0.00,30.4,29.0,00.0,39.1,32.2,26.5,0000.0,0005.55,0001.54,0000.85
2022-10-01 07:54:00,,0827.0,4.99,0.00,30.4,29.0,00.0,39.1,32.2,25.6,0000.0,0004.22,0001.47,0000.84
2022-10-01 07:55:00,,0826.8,5.01,0.00,30.4,28.9,00.0,39.2,32.2,25.2,0000.0,0004.10,0001.46,0000.84
2022-10-01 07:56:00,,0826.8,5.00,0.00,30.4,28.9,00.0,39.2,32.2,25.1,0000.0,0003.92,0001.44,0000.82
2022-10-01 07:57:00,,0826.8,4.99,0.00,30.4,28.9,00.0,39.2,32.2,25.3,0000.0,0004.10,0001.44,0000.81
2022-10-01 07:58:00,,0826.8,5.00,0.00,30.4,29.0,00.0,39.2,32.3,25.2,0000.0,0004.76,0001.39,0000.79
2022-10-01 07:59:00,,0826.8,5.00,0.00,30.4,28.9,00.0,39.2,32.3,24.9,0000.0,0004.86,0001.39,0000.78
